Location: Unspecified
(0.0000°N, 0.0000°E)
Time: 17:56:00
(UTC+00:00)

STARLINK 1062 - Pass Details

Date: 24 January 2020
Orbit: 548 x 551 km, 53.0° (Epoch: 17 January)

Event Time Altitude Azimuth Distance (km) Brightness Sun altitude
Exits shadow 04:57:30 15° 352° (N) 1,530 5.6 -17.5°
Drops below altitude 10° 04:58:23 10° 1° (N) 1,805 6.1 -17.3°
Sets 05:00:54 0° 14° (NNE) 2,696 7.1 -16.7°
